Tracking 19792 objects as of 17-Jul-2019
HD Live streaming from Space Station
objects crossing your sky now

GLOBALSTAR M049

Track GLOBALSTAR M049 now!
10-day predictions
GLOBALSTAR M049 is classified as:


NORAD ID: 25771
Int'l Code: 1999-031B
Perigee: 2,104.8 km
Apogee: 2,109.8 km
Inclination: 52.0 °
Period: 129.5 minutes
Semi major axis: 8478 km
RCS: 2.3329 m2 (large)
Launch date: June 10, 1999
Source: Globalstar (GLOB)
Launch site: AIR FORCE EASTERN TEST RANGE (AFETR)
aabbcc
Your satellite tracking list
Your tracking list is empty




NASA's NSSDC Master Catalog

Two Line Element Set (TLE):
1 25771U 99031B   19196.85531694 -.00000086 +00000-0 -73425-3 0  9991
2 25771 051.9896 056.6606 0002922 035.0032 325.0956 11.12091841876738
Source of the keplerian elements: AFSPC